This is the latest recevied weather packets stored in our database for station/object K8GLX. If no packets are shown the sender has not sent any weather packets the latest 10 day(s).
| Time | Temp. | Humidity | Pressure | Rain* | Wind** | Luminosity | Snow |
|---|---|---|---|---|---|---|---|
| 1777390140 | 17.78° C | 75% | 1011.2 hPa | 0 mm | - | 396 W/m² | - |
| 1777389861 | 17.22° C | 76% | 1011.2 hPa | 0 mm | - | 421 W/m² | - |
| 1777389428 | 17.78° C | 76% | 1011.2 hPa | 0 mm | - | 270 W/m² | - |
| 1777389263 | 17.78° C | 76% | 1011.2 hPa | 0 mm | - | 230 W/m² | - |
| 1777388828 | 17.22° C | 77% | 1011 hPa | 0 mm | - | 222 W/m² | - |
| 1777388534 | 17.22° C | 77% | 1011.3 hPa | 0 mm | - | 154 W/m² | - |
| 1777388228 | 17.22° C | 77% | 1011.1 hPa | 0 mm | - | 182 W/m² | - |
| 1777387934 | 17.22° C | 77% | 1011 hPa | 0 mm | - | 199 W/m² | - |
| 1777387628 | 17.22° C | 77% | 1010.8 hPa | 0 mm | - | 201 W/m² | - |
| 1777387461 | 16.67° C | 76% | 1010.9 hPa | 0 mm | - | 282 W/m² | - |
| 1777387027 | 17.22° C | 76% | 1011 hPa | 0 mm | - | 264 W/m² | - |
| 1777386734 | 16.67° C | 77% | 1010.8 hPa | 0 mm | - | 318 W/m² | - |
| 1777386428 | 16.67° C | 77% | 1010.9 hPa | 0 mm | - | 246 W/m² | - |
| 1777386134 | 16.67° C | 77% | 1010.8 hPa | 0 mm | - | 220 W/m² | - |
| 1777385828 | 16.67° C | 77% | 1010.9 hPa | 0 mm | - | 148 W/m² | - |
| 1777385534 | 16.67° C | 76% | 1010.8 hPa | 0 mm | - | 210 W/m² | - |
| 1777385228 | 16.67° C | 77% | 1010.6 hPa | 0 mm | - | 187 W/m² | - |
| 1777385061 | 16.67° C | 77% | 1010.6 hPa | 0 mm | - | 212 W/m² | - |
| 1777384737 | 16.67° C | 76% | 1010.8 hPa | 0 mm | - | 208 W/m² | - |
| 1777384461 | 16.67° C | 76% | 1010.7 hPa | 0 mm | - | 290 W/m² | - |
| 1777384028 | 16.67° C | 77% | 1010.6 hPa | 0 mm | - | 326 W/m² | - |
| 1777383734 | 16.67° C | 77% | 1010.7 hPa | 0 mm | - | 153 W/m² | - |
| 1777383428 | 16.11° C | 78% | 1010.8 hPa | 0 mm | - | 432 W/m² | - |
| 1777383134 | 16.11° C | 78% | 1010.6 hPa | 0 mm | - | 378 W/m² | - |
| 1777382828 | 15.56° C | 78% | 1010.6 hPa | 0 mm | - | 317 W/m² | - |
* Rain latest hour (hover to see other rain measurements)
** Current wind speed in m/s (hover to see current wind gust speed)